CO3D 4

Last updated on Mon Sep 21 2026 00:02:46 GMT+0000 (Coordinated Universal Time)

1 64901U 25156C 26263.56500295 .00002698 00000+0 12768-3 0 9991 2 64901 97.4341 340.8868 0001244 28.3562 331.7741 15.20205593 64024
UTC large
Height (km)
Speed (km/s)
/
Latitude / Longitude
Inclination (degrees)
Orbital Period (minutes)
Azimuth
Elevation
Range (km)
Doppler Factor

Next 0 passes for location: London (51.5072 / 0.1276)

No passes found over London.
CO3D 4